[Iaude] MPEC C110: 2024 CY1 [a=1.33,e=0.48,i=0.1,H=29.2]

mpec at cfa.harvard.edu mpec at cfa.harvard.edu
Sat Feb 10 09:27:15 EST 2024


M.P.E.C. 2024-C110                            Issued 2024 February 10, 14:25 UT

     The Minor Planet Electronic Circulars contain information on unusual
         minor planets, routine data on comets and natural satellites,
         and occasional editorial announcements.  They are published
    on behalf of Division F of the International Astronomical Union by the
          Minor Planet Center, Smithsonian Astrophysical Observatory,
                          Cambridge, MA 02138, U.S.A.
			  
             Prepared using the Tamkin Foundation Computer Network

                              MPC at CFA.HARVARD.EDU
            URL https://www.minorplanetcenter.net/    ISSN 1523-6714

                                    2024 CY1                                    


Observations:
     K24C01Y  C2024 02 09.33720109 32 41.839+12 46 15.15         21.25wXEC110F52
     K24C01Y* C2024 02 09.33849309 32 41.658+12 46 12.48         21.41wXEC110F52
     K24C01Y  C2024 02 09.34882909 32 40.189+12 45 51.48         21.37wXEC110F52
     K24C01Y  C2024 02 09.35012009 32 40.006+12 45 48.92         21.59wXEC110F52
     K24C01Y  C2024 02 09.36045609 32 38.452+12 45 27.41         21.58wXEC110F52
     K24C01Y  C2024 02 09.36174709 32 38.255+12 45 24.65         21.41wXEC110F52
     K24C01Y  C2024 02 09.37337709 32 36.432+12 44 59.74         21.69wXEC110F52
     K24C01Y  C2024 02 09.51344509 32 11.485+12 39 14.27         21.33GVEC110F52
     K24C01Y  C2024 02 09.51426509 32 11.333+12 39 11.97         20.89GVEC110F52
     K24C01Y  C2024 02 10.10871509 32 11.10 +12 13 02.1                WEC110X09
     K24C01Y  C2024 02 10.12034709 32 08.76 +12 12 18.7                WEC110X09
     K24C01Y KB2024 02 10.30268 09 31 37.98 +11 49 13.7          19.8 GVEC110734
     K24C01Y KB2024 02 10.32112 09 31 33.39 +11 47 33.1          20.7 GVEC110734
     K24C01Y KB2024 02 10.33920 09 31 28.95 +11 45 56.3          20.2 GVEC110734

Observer details:
734 Farpoint Observatory, Eskridge.  Observers D. Cromer, G. Hug, D. Goodin,
    R. Valentine.  Measurer D. Cromer.  0.69-m f/3.54 reflector + CMO.
F52 Pan-STARRS 2, Haleakala.  Observers J. Bulger, T. Lowe, A. Schultz, I.
    Smith, J. Herman, P. Minguez.  Measurers K. Chambers, S. Chastel, T. de
    Boer, J. Fairlamb, H. Gao, M. Huber, C.-C. Lin, E. Magnier, Y.
    Ramanjooloo, R. Wainscoat, R. Weryk.  1.8-m Ritchey-Chretien + CCD.
X09 Deep Random Survey, Rio Hurtado.  Observers A. Schnabel, D. Ruhela.
    Measurer S. Deen.  0.43-m reflector + CMOS.

Orbital elements:
2024 CY1                                                 Earth MOID = 0.0006 AU
Epoch 2023 Sept. 13.0 TT = JDT 2460200.5                Bell                    
M 228.54995              (2000.0)            P               Q                  
n   0.63944282     Peri.  288.68623     -0.67337267     +0.73930090             
a   1.3343453      Node   298.98572     -0.67749716     -0.61807919             
e   0.4784035      Incl.    0.12131     -0.29591696     -0.26723079             
P   1.54           H   29.23          G   0.15           U   8                  
Residuals in seconds of arc
240209 F52  0.0   0.0     240209 F52  0.2-  0.0     240210 X09  0.4+  0.4+
240209 F52  0.1-  0.1-    240209 F52  0.3-  0.2-    240210 734 (1.1+  2.5+)
240209 F52  0.1-  0.0     240209 F52  0.1+  0.0     240210 734  0.2+  0.7-
240209 F52  0.0   0.1+    240209 F52  0.0   0.0     240210 734  0.2-  0.7+
240209 F52  0.2-  0.0     240210 X09  0.6+  0.5+

Ephemeris:
2024 CY1                 a,e,i = 1.33, 0.48, 0                   q = 0.6960
Date    TT    R. A. (2000) Decl.     Delta      r    Elong.  Phase     V
2024 01 11    09 27 28.8 +15 01 11   0.2898  1.2438   150.5    22.9    28.1
...
2024 01 26    09 32 31.8 +14 27 29   0.1472  1.1270   164.4    13.6    26.1
...
2024 02 03    09 33 19.4 +14 05 31   0.07775 1.0626   172.2     7.2    24.3
...
2024 02 09    09 32 36.8 +12 58 52   0.02746 1.0139   177.6     2.3    21.7
2024 02 10    09 32 00.7 +12 15 04   0.01916 1.0058   177.6     2.4    20.9
2024 02 11    09 30 30.2 +10 24 54   0.01089 0.9977   175.9     4.1    19.8
...
2024 02 17    21 33 32.0 -14 04 19   0.03892 0.9493     6.4   173.4
...
2024 02 25    21 33 36.0 -13 17 39   0.1068  0.8865    14.2   164.1
...
2024 03 11    21 40 59.3 -12 34 22   0.2481  0.7812    27.3   144.4    33.1

M. P. C. Staff               (C) Copyright 2024 MPC           M.P.E.C. 2024-C110





More information about the Iaude mailing list